Content
SEND FEEDBACK

Daily
Averages
Monthly
Summary
United States of America

GREENFIELD, MASSACHUSETTS


Home > North America > United States > Massachusetts
Elevation: 58 meters     Latitude: 42 37N     Longitude: 072 33W

WEATHER
 
SELECT A DAY
Number of Records: 217,680;   Date Range: 7/1/96 - 12/19/14
 
SHARE

PRINT THIS DATA

[ ← Previous Day ]
WEATHER ALMANAC - 8 DECEMBER, 2013
[ Next Day → ]
[ °F ]   °C
Weather ElementAverageHighLow
Temperature-4.9 °C-2.2 °C (1:52 pm)-9.4 °C (5:52 am)
Dewpoint-8.2 °C-6.1 °C (10:52 am)-11.1 °C (6:52 am)
Humidity79.3 %95 % (5:52 am)58 % (12:52 pm)
Barometer1034.2 hPa1036.2 hPa (9:52 am)1032.5 hPa (1:52 am)
Wind Speed0.8 km/h5.6 km/h (11:52 am)
Weather ElementAverage
Visibility16.1 km
Wind DirectionNNE (25.7 °)

Weather ElementTotal
Precipitation---
Heating Degree Days24.2 (Base 18.3)
Averaged from 23 records on 8 December, 2013
WEATHER CONDITIONS BREAKOUT
WIND DIRECTION BREAKOUT
WEATHER BY HOUR - 8 DECEMBER, 2013
[ °F ]   °C
Local TimeTemperatureDewpointHumidityBarometerVisibilityWind DirectionWind SpeedGust SpeedPrecipitationEventsConditions
1:52 AM-7.8 °C-8.9 °C92 %1032.5 hPa16.1 kmCalmClear
2:52 AM-8.9 °C-10 °C92 %1032.5 hPa14.5 kmCalmClear
3:52 AM-8.3 °C-10 °C88 %1033.2 hPa16.1 kmCalmMostly Cloudy
4:52 AM-8.3 °C-9.4 °C92 %1033.5 hPa16.1 kmCalmClear
5:52 AM-9.4 °C-10 °C95 %1033.9 hPa16.1 kmCalmClear
6:52 AM-9.4 °C-11.1 °C88 %1034.9 hPa16.1 kmCalmClear
7:52 AM-7.8 °C-9.4 °C88 %1034.9 hPa16.1 kmCalmClear
8:52 AM-6.7 °C-8.3 °C89 %1035.6 hPa16.1 kmCalmClear
9:52 AM-5 °C-6.7 °C88 %1036.2 hPa16.1 kmCalmClear
10:52 AM-3.3 °C-6.1 °C81 %1036.2 hPa16.1 kmCalmClear
11:52 AM-2.8 °C-9.4 °C61 %1034.5 hPa16.1 kmNorth (360°)5.6 km/hClear
12:52 PM-2.8 °C-10 °C58 %1034.5 hPa16.1 kmCalmClear
1:52 PM-2.2 °C-8.9 °C61 %1034.5 hPa16.1 kmCalmClear
2:52 PM-2.2 °C-9.4 °C58 %1033.2 hPa16.1 kmCalmClear
3:52 PM-2.8 °C-8.3 °C66 %1034.9 hPa16.1 kmCalmClear
4:52 PM-2.8 °C-6.7 °C75 %1034.2 hPa16.1 kmCalmClear
5:52 PM-3.3 °C-6.1 °C81 %1034.5 hPa16.1 kmSouth (170°)5.6 km/hMostly Cloudy
6:52 PM-3.3 °C-6.1 °C81 %1034.5 hPa16.1 kmCalmOvercast
7:52 PM-3.3 °C-6.1 °C81 %1034.2 hPa16.1 kmCalmOvercast
8:52 PM-3.3 °C-6.1 °C81 %1033.9 hPa16.1 kmCalmOvercast
9:52 PM-3.3 °C-6.7 °C78 %1033.5 hPa16.1 kmCalmOvercast
10:52 PM-3.3 °C-6.7 °C78 %1032.5 hPa16.1 kmENE (60°)5.6 km/hOvercast
11:52 PM-2.8 °C-7.2 °C72 %1032.5 hPa16.1 kmCalmOvercast
Hourly data recorded from KORE, located 0 kilometers away from Greenfield, Massachusetts







STORIES FROM OUR PARTNERS